TimeAKDT,TemperatureF,Dew PointF,Humidity,Sea Level PressureIn,VisibilityMPH,Wind Direction,Wind SpeedMPH,Gust SpeedMPH,PrecipitationIn,Events,Conditions,WindDirDegrees,DateUTC
12:00 AM,46.4,44.6,93,29.59,10.0,Calm,Calm,-,N/A,,Overcast,0,2013-09-19 08:00:00
12:30 AM,46.4,46.4,100,29.58,10.0,Calm,Calm,-,N/A,,Overcast,0,2013-09-19 08:30:00
12:53 AM,46.9,45.0,93,29.58,8.0,NNW,3.5,-,0.02,Rain,Light Rain,340,2013-09-19 08:53:00
1:53 AM,46.0,44.1,93,29.58,10.0,North,5.8,-,0.01,,Overcast,360,2013-09-19 09:53:00
2:53 AM,46.9,44.1,90,29.56,10.0,North,4.6,-,N/A,,Overcast,10,2013-09-19 10:53:00
3:53 AM,46.0,43.0,89,29.54,10.0,North,4.6,-,N/A,,Overcast,10,2013-09-19 11:53:00
4:45 AM,44.6,42.8,93,29.53,10.0,Calm,Calm,-,N/A,,Overcast,0,2013-09-19 12:45:00
4:53 AM,44.1,43.0,96,29.53,10.0,Calm,Calm,-,N/A,,Overcast,0,2013-09-19 12:53:00
5:53 AM,44.1,42.1,93,29.52,10.0,North,4.6,-,N/A,,Overcast,10,2013-09-19 13:53:00
6:53 AM,44.1,42.1,93,29.51,10.0,North,4.6,-,N/A,,Mostly Cloudy,350,2013-09-19 14:53:00
7:53 AM,46.0,43.0,89,29.50,10.0,NNE,8.1,-,N/A,,Overcast,30,2013-09-19 15:53:00
8:53 AM,46.9,43.0,86,29.49,10.0,North,6.9,-,N/A,,Overcast,10,2013-09-19 16:53:00
9:53 AM,48.9,43.0,80,29.49,10.0,NNE,10.4,-,N/A,,Overcast,30,2013-09-19 17:53:00
10:53 AM,52.0,41.0,66,29.48,10.0,NNE,11.5,19.6,N/A,,Overcast,20,2013-09-19 18:53:00
11:53 AM,53.1,39.0,59,29.47,10.0,NNW,15.0,21.9,N/A,,Overcast,340,2013-09-19 19:53:00
12:53 PM,52.0,37.0,57,29.45,10.0,NNW,10.4,20.7,0.00,Rain,Light Rain,340,2013-09-19 20:53:00
1:53 PM,55.0,37.0,51,29.44,10.0,North,10.4,23.0,0.00,,Mostly Cloudy,350,2013-09-19 21:53:00
2:53 PM,53.1,36.0,52,29.43,10.0,NW,16.1,24.2,0.00,,Mostly Cloudy,320,2013-09-19 22:53:00
3:53 PM,54.0,35.1,49,29.42,10.0,NW,13.8,28.8,N/A,,Mostly Cloudy,320,2013-09-19 23:53:00
4:53 PM,53.1,35.1,50,29.40,10.0,NW,17.3,29.9,N/A,,Partly Cloudy,310,2013-09-20 00:53:00
5:53 PM,51.1,34.0,52,29.40,10.0,WNW,11.5,21.9,N/A,,Scattered Clouds,300,2013-09-20 01:53:00
6:53 PM,48.9,30.0,48,29.38,10.0,WNW,18.4,35.7,N/A,,Clear,300,2013-09-20 02:53:00
7:53 PM,48.0,26.1,42,29.37,10.0,NW,18.4,39.1,N/A,,Clear,310,2013-09-20 03:53:00
8:53 PM,46.9,25.0,42,29.36,10.0,NNW,17.3,36.8,N/A,,Clear,330,2013-09-20 04:53:00
9:53 PM,46.0,25.0,44,29.35,10.0,North,10.4,28.8,N/A,,Clear,360,2013-09-20 05:53:00
10:53 PM,46.0,25.0,44,29.34,10.0,North,15.0,35.7,N/A,,Clear,360,2013-09-20 06:53:00
11:53 PM,46.0,26.1,46,29.33,10.0,NNW,19.6,35.7,N/A,,Clear,340,2013-09-20 07:53:00